Theta_e
312 311 311 312 312 312 313 313 315 317 318 319 320 319 319 318 318 318 318 318 317 317 316 315 314 314 313 311 311 310 309 307 305 308 307 308 307 307 306 306 304 303 301
312 311 310 310 311 311 311 311 312 313 314 314 314 315 315 316 315 315 314 313 313 313 313 312 311 310 310 309 309 309 308 308 308 308 308 306 305 303 303 302 302 301 300
311 310 310 310 310 310 310 310 310 310 310 310 310 310 310 309 309 309 310 310 310 310 310 309 309 308 307 307 306 307 307 307 307 306 305 303 302 301 301 300 299 297 296
310 310 310 310 309 309 309 310 310 310 309 309 309 309 309 309 308 308 308 308 308 308 308 307 307 307 306 306 306 306 305 303 303 302 302 301 301 300 299 298 297 297 295
306 306 307 307 307 308 309 309 308 308 308 309 309 309 309 309 308 308 308 307 308 308 308 307 307 307 306 306 305 305 304 303 301 301 301 299 300 299 299 298 295 294 293
301 301 302 302 302 302 302 303 303 304 305 305 306 307 307 307 307 307 307 307 308 308 308 308 307 306 305 304 304 304 302 301 301 301 301 300 301 300 298 295 293 291 287
299 299 299 299 299 299 299 299 299 300 299 300 300 300 301 302 303 304 305 305 305 305 305 305 305 304 304 303 302 302 302 301 300 298 298 299 299 298 296 293 292 290 290
297 297 297 297 297 297 297 297 297 296 296 296 296 296 297 298 298 300 301 302 302 303 303 303 302 301 301 300 300 300 300 300 300 298 297 298 296 295 293 292 291 290 287
296 296 296 295 295 295 295 295 295 295 295 295 295 296 296 297 298 299 299 299 300 300 300 300 298 298 298 298 298 298 299 299 298 296 296 295 294 293 291 290 288 287 285
294 294 294 294 294 294 294 294 294 294 295 295 295 295 296 297 297 298 298 298 299 298 298 298 297 296 296 296 296 296 296 296 294 294 293 292 292 291 290 289 288 288 287
293 293 292 292 292 292 292 292 292 292 292 293 294 294 294 296 297 297 297 297 297 297 297 297 297 296 295 295 294 292 292 290 289 289 289 289 289 289 288 288 288 288 287
291 291 291 291 291 291 291 291 291 291 292 292 292 293 293 294 295 296 297 296 296 296 295 295 295 295 295 294 293 291 289 287 287 287 287 286 286 287 287 287 288 288 286
290 290 290 290 290 290 290 290 290 290 291 291 292 292 292 293 293 294 295 295 295 294 294 293 293 292 292 292 291 289 288 287 286 286 286 286 286 287 287 287 286 286 285
290 290 291 291 291 291 291 291 291 291 291 292 292 292 292 292 292 292 293 293 294 293 293 292 292 291 290 290 288 288 287 286 285 286 285 285 286 286 286 286 285 285 285
291 291 291 291 291 290 291 291 291 291 291 291 291 291 290 290 290 289 288 289 290 291 289 289 288 288 288 288 287 286 286 286 285 285 285 285 285 285 285 285 285 285 285
290 290 290 289 289 289 290 291 291 291 291 291 290 289 289 288 288 288 288 288 287 287 286 286 286 287 287 286 286 286 285 285 285 285 284 284 285 285 285 285 285 285 285
288 288 288 288 288 288 288 288 289 290 290 290 288 287 287 287 288 288 288 288 288 287 287 286 286 286 286 286 285 285 285 285 285 284 284 284 284 285 285 285 285 284 285
287 287 287 286 286 286 286 286 286 286 287 288 287 286 286 286 286 286 286 286 287 287 286 286 285 285 285 285 285 285 285 284 285 284 284 284 284 284 284 284 284 284 284
286 286 286 286 285 285 285 285 284 284 284 284 284 285 284 285 284 284 284 284 284 285 285 286 285 285 285 284 284 284 284 284 284 284 284 284 283 283 283 283 283 283 283
285 285 285 284 284 284 283 283 283 283 283 282 282 283 283 283 283 283 283 283 283 283 283 284 284 284 284 284 284 284 284 284 284 284 284 284 283 283 283 283 283 282 282
284 284 283 282 282 282 282 281 281 281 280 280 280 280 281 281 281 281 281 281 281 281 281 281 282 282 282 282 282 283 283 283 283 283 283 283 283 283 283 282 282 282 282
282 282 281 281 280 280 279 279 279 279 278 278 278 278 279 279 279 279 279 279 279 279 279 279 279 280 280 280 280 281 281 281 281 282 282 282 282 282 282 281 281 281 281
280 279 279 279 278 277 277 277 276 276 276 276 276 276 277 277 277 277 277 277 277 277 277 277 277 278 278 278 278 278 279 279 279 279 280 280 280 280 280 280 280 280 280
277 277 276 276 275 275 275 275 274 274 274 274 274 274 275 275 275 275 275 275 275 275 275 275 275 276 276 276 276 276 277 277 276 277 277 277 277 277 278 278 279 279 279
276 275 275 274 274 274 274 273 273 273 273 273 273 273 273 273 273 273 273 273 273 273 274 274 274 274 274 275 274 274 274 274 274 274 274 275 275 275 275 275 275 275 275
274 274 273 273 273 273 273 273 272 272 272 272 272 272 272 272 272 272 272 272 273 273 273 273 273 273 273 273 273 272 272 272 272 271 271 271 272 272 272 272 272 272 272
Wind_Speed
4 3 4 5 6 8 10 13 16 19 21 22 23 25 23 23 24 26 27 29 30 31 33 35 36 35 36 35 35 36 37 38 43 45 44 43 43 44 42 43 42 43 50
3 3 3 2 3 5 7 9 10 11 13 15 17 18 21 24 27 29 30 31 32 33 32 33 34 32 34 34 36 36 37 38 41 47 45 45 43 41 41 42 42 42 44
2 3 3 3 4 4 4 5 6 7 10 12 13 14 15 17 19 21 22 23 25 27 28 30 31 32 32 32 32 36 37 37 39 43 45 47 45 43 42 42 42 42 43
3 3 3 3 4 4 5 5 6 7 8 10 11 12 13 15 16 17 19 20 22 23 24 27 28 30 31 31 33 36 38 39 39 40 42 44 45 44 42 42 43 43 43
5 4 3 4 4 3 4 5 7 9 10 12 13 14 16 17 18 20 22 23 24 25 27 29 29 30 32 32 36 38 39 39 39 39 41 42 44 45 46 45 43 41 42
5 5 5 5 5 5 5 6 8 9 11 13 16 17 18 20 23 26 28 30 31 32 34 34 35 34 35 35 35 36 36 37 39 40 42 44 45 44 42 41 38 38 39
3 3 3 4 5 6 7 9 10 11 13 14 15 17 18 20 22 24 26 28 31 33 35 36 36 37 36 36 35 37 38 37 36 36 40 42 42 42 39 37 36 37 41
2 3 4 6 8 9 11 13 14 16 18 19 20 22 22 22 23 24 25 27 29 31 32 33 34 34 33 33 35 37 36 36 34 34 38 39 39 37 38 34 31 30 34
5 7 9 11 13 15 16 18 19 21 21 22 24 24 25 23 24 24 25 25 26 27 28 28 29 30 29 30 34 35 36 36 33 30 31 32 31 33 32 29 32 30 34
12 14 15 17 18 20 21 22 22 23 24 24 24 25 26 26 26 26 27 28 29 28 28 28 24 23 25 27 30 31 34 32 30 28 27 26 26 28 28 28 28 30 32
15 17 19 20 22 24 25 26 27 28 28 27 28 27 28 28 26 26 26 26 27 28 29 30 29 24 25 28 29 28 28 25 26 25 24 23 22 24 27 29 28 30 33
17 18 19 20 21 23 25 26 27 29 31 31 31 31 29 28 28 28 26 26 26 28 30 31 31 29 25 25 25 24 21 21 24 26 22 22 24 25 27 27 26 26 26
16 17 19 21 23 26 27 28 29 29 30 32 32 33 32 29 28 29 28 26 26 27 28 30 29 27 25 23 21 19 18 19 21 22 22 23 21 18 20 24 25 24 24
16 19 20 21 21 23 25 27 28 28 28 30 32 32 32 31 29 28 29 29 25 25 25 26 25 24 21 19 16 14 15 17 16 18 22 23 21 21 20 20 23 23 24
16 17 19 21 23 24 24 25 26 26 28 30 30 31 31 31 29 27 27 29 28 25 25 25 24 21 19 16 15 14 14 16 17 16 20 22 23 22 19 18 20 24 25
16 18 21 22 23 25 27 26 24 27 28 29 29 28 29 27 27 28 29 30 29 21 21 21 23 20 18 15 14 13 12 14 14 14 14 17 20 20 20 21 20 23 25
17 19 21 23 25 26 27 29 32 27 27 27 27 24 23 27 28 30 30 27 24 19 20 22 20 18 16 14 13 13 13 12 12 13 12 14 17 19 21 22 21 20 21
18 22 24 25 26 28 29 29 30 31 32 31 25 23 23 23 23 24 25 25 23 19 19 21 20 17 14 14 13 12 12 13 12 11 11 12 13 14 17 18 19 20 22
20 22 25 27 27 28 29 28 28 27 28 29 28 25 20 21 20 20 21 21 21 19 20 19 19 17 16 13 12 12 11 11 10 10 9 10 11 12 14 15 16 17 17
20 23 25 26 26 27 27 27 27 26 25 23 23 24 23 20 20 19 18 17 16 16 16 15 15 15 15 15 14 13 11 11 10 10 10 10 10 11 12 13 14 14 15
20 21 23 24 24 25 25 25 25 24 23 21 20 20 23 20 19 18 17 16 15 15 14 13 13 12 12 12 12 13 13 13 13 13 13 13 13 13 12 12 12 13 13
19 20 21 22 23 23 23 23 22 22 21 20 19 19 20 18 17 17 17 17 16 16 15 14 13 12 12 11 11 11 12 12 13 13 13 14 14 14 14 13 13 13 12
16 17 18 20 21 20 20 20 19 18 18 18 18 18 17 17 16 16 16 16 15 15 14 14 14 14 14 14 13 12 12 12 12 13 13 13 14 14 14 13 13 13 13
15 16 17 17 17 17 17 16 16 16 15 15 15 14 14 14 13 13 12 12 12 12 11 11 11 10 10 9 9 9 9 9 8 9 9 9 10 10 10 12 13 14 15
14 15 15 16 16 16 15 15 15 15 14 14 14 14 13 13 12 12 11 11 11 11 11 11 11 11 11 11 11 10 11 12 12 13 13 13 14 14 14 14 15 15 15
13 14 14 15 15 16 16 16 16 16 16 16 15 15 15 15 15 15 14 14 13 13 13 13 13 13 13 13 13 14 15 17 16 14 14 14 14 14 13 13 12 12 12
Wind_Direction
14 346 307 282 271 266 263 259 255 253 253 256 257 261 266 267 273 272 273 275 275 276 278 280 282 283 283 282 282 281 280 277 273 280 277 278 275 276 273 274 268 258 247
357 345 339 320 293 278 275 272 267 264 261 262 265 267 269 271 272 273 274 274 275 275 277 277 279 281 282 282 281 281 281 281 278 280 283 281 279 279 277 274 272 268 262
12 344 353 4 5 346 325 296 286 278 274 272 270 271 273 273 273 274 276 278 279 280 281 281 282 280 279 279 283 283 284 282 280 280 283 282 282 282 280 277 272 267 261
28 14 352 323 309 309 311 317 310 301 293 290 289 286 280 277 277 278 278 280 281 283 285 285 284 282 282 280 278 279 280 282 282 282 283 284 285 284 280 275 271 268 262
77 66 63 49 28 353 322 307 301 297 293 290 289 289 286 281 277 272 270 269 269 271 273 272 274 275 276 278 278 279 281 280 278 278 278 279 279 279 279 280 275 271 265
72 58 46 30 16 3 355 345 333 325 321 314 309 303 299 294 291 290 288 287 284 284 286 286 285 282 281 279 278 278 280 280 277 277 278 276 279 280 280 277 275 261 250
64 48 31 19 8 1 358 353 346 342 338 333 328 321 316 309 305 301 297 294 291 291 290 289 287 286 284 283 284 283 281 280 279 277 273 275 278 279 282 278 273 265 263
32 0 351 347 342 341 338 335 332 330 328 326 325 322 319 318 313 309 305 302 298 295 293 292 291 291 292 292 288 286 285 283 282 277 274 278 276 276 277 278 279 278 261
321 327 325 324 323 321 321 319 320 319 319 319 319 318 317 317 314 312 310 306 303 301 297 294 292 292 294 288 286 286 285 283 284 280 276 274 271 268 268 267 260 251 243
321 323 323 321 319 318 316 315 315 313 312 312 311 311 310 309 308 308 308 308 307 305 305 304 300 294 287 284 284 286 286 290 289 285 279 275 271 265 261 257 257 251 244
315 316 315 314 313 312 312 313 312 311 309 310 309 309 307 305 303 302 303 304 304 304 306 306 306 303 291 288 285 285 287 294 292 288 287 280 273 268 261 259 257 256 251
307 308 309 310 310 311 312 312 312 312 311 310 307 305 304 302 299 298 298 299 301 303 306 305 305 305 302 294 289 285 285 287 283 284 282 277 279 273 266 264 264 260 247
304 305 306 308 309 310 310 309 308 308 308 309 309 307 305 302 298 296 297 299 301 302 302 302 303 304 303 295 289 282 279 282 283 278 276 279 282 280 276 263 260 254 248
307 307 308 309 310 311 312 314 313 313 311 310 308 305 303 301 299 301 300 301 302 301 299 300 301 303 305 301 290 283 282 289 284 275 278 281 285 287 280 268 258 252 252
307 310 311 312 313 313 313 314 313 313 312 310 308 304 300 298 302 305 306 309 310 305 304 307 310 311 311 306 299 296 286 284 288 282 272 272 281 286 279 272 257 254 250
310 312 313 315 316 316 315 313 312 310 308 307 307 302 296 291 295 296 298 296 296 294 296 299 302 307 309 306 300 302 301 296 293 295 283 279 281 277 282 275 266 259 259
314 317 320 320 320 318 317 316 314 310 308 305 305 304 291 291 293 294 293 292 289 281 278 286 297 303 302 301 297 296 304 306 296 291 284 282 287 285 282 277 274 265 264
320 319 320 319 318 318 317 316 315 315 314 313 311 310 305 301 299 296 295 298 297 285 276 281 289 295 300 297 291 290 295 299 302 302 294 288 284 284 285 281 276 271 269
312 314 315 316 316 316 315 313 313 312 311 312 314 310 308 305 303 299 299 298 296 286 272 270 279 286 287 294 295 289 288 290 287 292 299 298 291 286 284 282 278 275 274
308 310 310 310 310 310 310 309 309 308 308 309 309 308 307 307 303 303 305 305 302 293 284 279 282 288 289 287 286 288 284 286 286 284 285 289 291 290 290 288 285 281 278
308 308 309 310 311 311 310 309 309 308 307 305 303 301 300 302 300 301 303 307 305 302 297 294 292 291 291 291 288 287 286 285 282 280 281 281 280 279 279 278 279 281 279
309 310 310 311 311 310 309 308 307 306 305 302 300 297 298 299 298 298 299 301 302 300 299 300 299 296 293 291 287 284 282 282 280 281 281 281 280 278 275 274 274 274 274
310 311 311 311 310 309 309 309 308 308 307 306 304 302 300 300 299 299 300 300 299 297 296 295 294 295 294 293 291 290 288 286 286 283 281 279 278 277 278 278 274 270 267
311 311 312 311 309 309 310 310 310 311 311 310 310 310 310 309 308 307 307 307 308 308 308 306 304 303 301 300 300 302 303 305 307 305 303 300 295 290 285 281 279 276 273
308 310 311 309 309 308 309 310 309 310 311 312 313 312 312 311 310 310 310 310 310 309 308 308 308 309 310 309 307 306 305 304 305 304 301 296 291 286 284 280 277 274 271
303 304 304 303 304 305 307 307 306 307 308 308 308 308 308 308 308 308 307 306 305 304 304 304 304 305 305 306 305 302 299 298 299 299 295 293 291 288 285 282 280 277 275